Date,TemperatureHighF,TemperatureAvgF,TemperatureLowF,DewpointHighF,DewpointAvgF,DewpointLowF,HumidityHigh,HumidityAvg,HumidityLow,PressureMaxIn,PressureMinIn,WindSpeedMaxMPH,WindSpeedAvgMPH,GustSpeedMaxMPH,PrecipitationSumIn
2013-1-1,52.7,46.9,38.8,52.4,46.6,38.6,99,99,88,30.13,29.98,7,1,11,0.93
2013-1-2,39.0,35.1,33.3,38.6,34.9,33.0,99,99,98,30.24,30.09,5,2,10,0.00
2013-1-3,44.2,34.7,27.0,33.9,31.2,26.7,99,88,58,30.41,30.21,5,1,11,0.00
2013-1-4,46.6,35.4,23.9,31.6,28.0,23.7,99,77,47,30.49,30.39,6,1,10,0.00
2013-1-5,50.9,37.5,24.6,40.1,32.3,24.4,99,84,50,30.42,30.27,4,0,10,0.05
2013-1-6,52.7,41.6,34.2,47.0,39.3,33.4,99,92,70,30.36,30.21,8,1,12,0.00
2013-1-7,52.5,36.7,27.5,37.8,31.8,27.3,99,85,50,30.42,30.28,6,1,11,0.00
2013-1-8,62.2,46.5,29.3,48.9,41.2,29.1,99,84,55,30.36,30.25,4,0,8,0.00
2013-1-9,59.7,55.4,50.4,59.4,54.9,48.3,99,98,92,30.40,30.28,4,0,8,0.61
2013-1-10,65.8,61.7,57.2,64.7,61.4,56.9,99,99,96,30.37,30.05,4,1,11,0.02
2013-1-11,70.9,64.6,46.2,69.1,63.7,46.0,99,97,89,30.14,29.99,5,1,11,25.68
2013-1-12,71.6,67.3,64.8,70.8,66.4,62.6,99,97,90,30.10,29.94,3,1,8,0.02
2013-1-13,70.5,60.5,40.5,69.9,59.8,40.2,99,98,90,30.18,29.89,10,2,15,0.77
2013-1-14,40.5,35.9,32.7,40.2,35.6,32.5,99,99,99,30.30,30.15,8,4,17,0.96
2013-1-15,37.9,37.1,36.5,37.7,36.8,36.2,99,99,99,30.06,29.97,5,2,10,1.65
2013-1-16,39.2,37.6,36.5,38.9,37.3,36.2,99,99,99,30.12,29.98,6,1,10,0.22
2013-1-17,41.7,37.4,33.3,40.1,36.4,32.7,99,96,87,30.42,29.93,11,3,22,0.15
2013-1-18,51.1,37.1,27.0,41.5,32.8,26.5,99,87,47,30.58,30.41,4,1,8,0.00
2013-1-19,58.1,41.4,27.1,42.6,33.5,26.9,99,77,40,30.42,30.22,5,1,12,0.00
2013-1-20,59.5,42.1,29.1,45.5,36.0,28.9,99,82,49,30.26,30.15,5,1,9,0.00
2013-1-21,47.7,36.2,28.2,35.8,23.7,17.8,94,63,30,30.29,30.13,7,1,11,0.00
2013-1-22,40.8,31.8,23.2,21.7,17.6,13.4,77,57,35,30.42,30.27,9,2,15,0.00
2013-1-23,59.0,44.8,31.3,41.3,31.2,21.3,78,60,37,30.39,30.19,6,1,10,0.00
2013-1-24,47.1,40.1,33.8,41.6,22.2,8.5,95,52,23,30.42,30.21,8,3,17,0.00
2013-1-25,47.5,43.4,38.5,47.0,34.1,13.7,99,75,36,30.28,30.10,6,1,10,0.16
2013-1-26,51.3,35.7,32.7,38.4,34.6,31.2,99,97,47,30.34,30.22,5,2,11,0.00
2013-1-29,69.3,67.3,38.5,67.0,65.6,31.3,97,95,75,30.31,29.74,4,2,11,0.00
2013-1-30,70.7,54.4,37.0,68.3,51.8,23.8,99,91,59,29.97,29.57,15,4,27,1.06
2013-1-31,50.2,40.4,30.2,27.8,23.1,17.4,79,52,28,30.19,29.97,14,3,21,0.00
2013-2-1,42.8,30.9,23.2,32.2,8.7,-13.3,70,42,10,30.48,30.18,11,2,18,0.00
2013-2-2,43.9,33.7,23.2,40.4,25.9,12.8,99,74,43,30.37,30.12,4,0,9,0.02
2013-2-3,57.7,42.8,31.8,44.2,27.2,13.1,99,63,17,30.18,30.07,11,2,20,0.01
2013-2-4,54.9,42.3,28.2,34.3,27.5,16.9,95,60,25,30.15,29.95,3,0,6,0.00
2013-2-5,67.6,51.5,39.6,49.3,41.6,32.6,99,73,34,30.09,29.95,7,1,10,0.03
2013-2-6,67.6,49.7,32.5,47.0,33.1,19.2,99,62,17,30.22,30.08,4,0,7,0.00
2013-2-7,61.7,52.3,47.1,51.4,45.0,32.8,99,77,53,30.12,29.95,4,0,5,0.03
2013-2-8,49.8,44.8,35.2,49.4,40.4,29.2,99,85,61,30.29,29.91,8,2,15,0.20
2013-2-9,63.0,45.8,30.7,31.8,25.5,2.3,93,53,9,30.34,30.16,7,1,12,0.00
2013-2-10,58.6,52.1,36.5,58.4,43.8,27.5,99,77,39,30.32,29.90,8,1,15,0.47
2013-2-11,59.7,53.3,44.1,59.4,47.2,29.6,99,81,40,30.21,29.98,5,1,8,0.02
2013-2-12,53.4,46.2,39.9,42.5,34.2,20.1,95,67,27,30.19,29.79,6,1,11,0.22
2013-2-13,48.9,43.8,39.2,46.9,41.0,33.6,99,90,71,30.05,29.71,11,2,17,0.04
2013-2-14,62.6,45.6,29.5,46.0,33.1,21.2,99,68,22,30.12,30.02,7,1,11,0.00
2013-2-15,62.2,44.5,31.6,47.7,32.1,20.4,99,66,28,30.14,30.07,7,1,14,0.00
2013-2-16,42.6,33.2,27.1,20.6,16.6,4.4,65,51,22,30.17,30.11,8,2,13,0.00
2013-2-17,40.6,33.9,30.2,16.3,12.8,5.8,55,42,23,30.25,30.21,0,0,2,0.00
2013-2-18,64.4,47.0,31.1,43.5,18.6,12.3,92,35,15,30.28,29.91,5,1,14,0.24
2013-2-19,49.6,39.8,29.5,44.5,12.2,-6.5,97,37,9,30.25,29.99,7,2,14,0.06
2013-2-20,39.6,33.7,25.9,20.6,11.8,3.5,77,42,24,30.31,30.18,6,2,11,0.00
2013-2-21,57.0,41.7,31.1,48.8,24.5,-15.5,99,60,6,30.21,29.90,6,2,11,0.64
2013-2-22,54.7,50.9,48.4,51.6,49.5,48.1,99,95,84,30.10,29.92,3,1,7,0.02
2013-2-25,53.6,50.6,47.8,47.7,41.6,36.9,98,73,54,29.76,29.53,8,3,21,0.07
2013-2-26,52.2,45.5,39.9,50.4,40.8,33.2,99,85,57,29.97,29.46,9,2,17,33.27
2013-2-27,57.4,46.0,40.1,32.9,30.2,27.6,72,55,34,29.95,29.80,9,3,15,0.00
2013-2-28,43.7,39.1,35.4,31.6,23.3,19.7,68,53,40,30.08,29.89,8,3,15,0.00
2013-3-1,43.0,37.2,33.3,32.2,26.6,21.2,95,67,44,30.09,30.03,7,2,11,0.00
2013-3-2,39.4,33.9,30.2,32.5,29.3,24.8,97,83,62,30.16,30.03,9,2,14,0.04
2013-3-5,39.2,36.9,30.4,33.2,29.4,16.4,82,75,47,30.15,30.02,14,3,22,0.75
2013-3-6,46.2,37.2,30.9,24.2,20.6,14.6,71,51,37,30.29,30.06,11,4,19,0.00
2013-3-7,53.6,38.4,26.6,26.6,24.1,20.3,89,59,28,30.37,30.28,7,2,14,0.00
2013-3-8,58.5,41.8,28.8,28.6,20.0,-0.3,90,51,10,30.39,30.24,7,1,11,0.00
2013-3-9,69.1,53.9,38.1,29.2,18.6,-2.4,66,30,6,30.26,30.08,3,1,8,0.00
2013-3-10,76.6,63.9,48.7,38.8,24.6,10.1,43,25,8,30.12,29.86,4,2,12,0.00
2013-3-11,65.8,50.8,39.9,55.6,44.0,29.5,99,80,36,30.00,29.81,8,2,14,1.21
2013-3-12,60.6,45.4,25.7,32.8,24.7,7.2,90,50,14,30.19,29.99,9,2,15,35.27
2013-3-13,54.5,42.3,32.0,27.1,14.7,-5.9,77,38,10,30.39,30.16,12,3,17,0.00
2013-3-14,47.8,33.8,26.4,17.5,10.3,-14.7,62,43,6,30.45,30.39,7,1,14,0.00
2013-3-18,67.6,55.1,50.0,58.0,53.5,27.4,99,95,22,29.98,29.76,7,1,11,0.70
2013-3-19,64.6,51.2,35.6,46.2,26.6,0.9,98,50,8,30.17,29.97,9,2,14,0.00
2013-3-20,60.4,44.8,38.5,25.0,13.2,-5.9,58,31,9,30.19,29.99,11,2,20,0.00
2013-3-21,44.2,36.1,24.6,25.0,6.1,-23.9,60,33,4,30.12,29.97,6,2,11,0.00
2013-3-22,51.4,45.1,39.2,33.9,22.5,11.9,59,41,25,30.06,29.96,5,1,9,0.02
2013-3-23,53.4,49.0,44.8,52.5,47.5,34.8,99,95,63,29.98,29.68,7,1,11,0.91
2013-3-24,65.7,52.5,38.7,58.8,44.9,21.2,99,77,47,29.82,29.48,18,4,27,0.34
2013-3-25,41.0,36.4,34.0,23.5,18.6,13.0,65,49,32,30.16,29.81,16,6,24,0.00
2013-3-26,44.2,37.6,32.5,26.5,21.9,17.3,69,54,35,30.36,30.14,9,3,15,0.00
2013-3-27,58.8,42.7,25.2,29.0,17.5,-5.3,89,46,7,30.41,30.29,8,1,14,0.00
2013-3-28,67.1,49.2,33.1,32.0,15.2,-99.9,82,39,1,30.39,30.27,8,1,13,0.00
2013-3-29,72.3,53.3,36.0,37.0,25.0,-19.5,89,45,3,30.31,30.16,6,1,10,0.00
2013-3-31,62.6,58.2,54.0,60.5,57.7,53.5,99,98,93,29.94,29.88,4,1,6,0.14
2013-4-1,54.0,53.4,52.5,53.7,53.1,52.1,99,99,99,29.94,29.93,4,2,6,0.00
2013-4-4,52.0,47.7,44.8,43.4,40.4,35.9,95,79,54,30.12,30.00,1,0,4,0.60
2013-4-5,69.4,54.8,44.2,39.5,30.3,11.7,82,47,11,30.13,30.06,3,0,6,0.00
2013-4-6,78.1,57.7,38.7,45.2,30.7,7.8,96,50,8,30.18,30.03,3,0,8,0.00
2013-4-7,80.6,63.8,46.4,47.9,39.3,28.0,75,45,15,30.15,30.00,6,1,14,0.00
2013-4-8,84.4,69.4,53.2,57.5,50.2,44.8,85,55,27,30.10,29.98,7,1,12,0.00
2013-4-9,86.7,72.0,57.0,60.2,53.9,48.2,89,57,28,30.17,29.98,6,1,10,0.00
2013-4-10,90.5,77.0,60.6,58.3,51.2,36.1,80,45,15,30.08,29.85,6,1,11,0.00
2013-4-11,80.2,68.8,54.9,63.8,58.6,53.0,97,72,47,29.87,29.57,9,2,17,0.70
2013-4-12,68.5,53.0,42.8,53.5,41.8,24.5,97,72,19,30.00,29.72,8,2,14,0.00
2013-4-13,76.1,58.4,42.1,45.3,35.7,13.0,96,54,10,30.12,29.99,5,1,9,0.00
2013-4-14,66.6,57.2,47.8,54.1,47.6,33.2,87,73,32,30.03,29.88,6,1,13,0.03
2013-4-15,85.1,69.4,52.7,59.8,55.3,50.3,95,65,34,30.07,29.91,4,1,9,0.00
2013-4-16,86.7,73.2,62.8,68.2,63.0,58.0,87,72,48,30.19,30.06,3,0,8,0.02
2013-4-17,91.6,78.1,65.8,68.5,63.0,56.6,90,63,32,30.20,30.02,4,1,9,0.00
2013-4-18,87.1,75.6,65.3,63.1,58.4,49.1,87,59,29,30.03,29.69,6,1,11,0.00
2013-4-19,74.7,51.7,38.1,65.9,40.7,25.6,93,69,30,30.17,29.66,11,3,21,1.05
2013-4-20,66.2,51.5,33.6,43.0,23.7,-1.6,94,47,7,30.29,30.16,8,1,12,0.00
2013-4-21,74.3,57.9,43.5,41.0,26.4,-2.2,71,38,6,30.35,30.22,6,1,10,0.00
2013-4-22,78.1,63.6,49.1,45.9,36.0,16.7,75,41,12,30.29,30.12,7,1,11,0.00
2013-4-23,80.8,66.5,52.2,50.9,41.7,25.5,80,46,18,30.19,30.02,4,1,8,0.00
2013-4-24,68.4,58.0,47.3,59.4,50.0,35.9,90,75,61,30.28,29.97,10,2,16,0.27
2013-4-25,69.8,53.7,41.9,38.3,27.7,-1.3,80,45,6,30.39,30.25,7,2,11,0.00
2013-4-26,78.4,59.6,41.7,49.6,31.4,0.6,84,46,7,30.40,30.22,8,2,15,0.07
2013-4-27,72.7,63.1,54.1,61.8,55.7,49.6,91,77,60,30.33,30.00,4,1,9,0.14
2013-4-28,67.3,62.4,58.1,65.8,60.1,56.5,96,92,80,30.03,29.91,12,1,20,0.80
2013-4-29,79.2,65.6,54.3,64.8,54.9,44.2,97,73,32,30.05,29.94,4,1,8,0.00
2013-4-30,82.8,67.5,48.4,60.2,49.6,33.3,97,60,20,30.06,29.96,4,0,8,0.00
2013-5-1,79.2,70.7,64.9,59.7,55.0,49.7,80,59,39,30.15,30.04,8,1,17,0.00
2013-5-2,77.4,67.6,60.6,58.4,53.7,48.7,72,61,47,30.17,30.07,6,1,12,0.00
2013-5-3,77.7,65.3,47.3,56.1,52.7,44.6,91,65,35,30.08,29.86,8,2,20,0.43
2013-5-4,52.5,46.7,43.0,45.3,43.1,40.4,94,88,66,30.01,29.89,5,2,11,1.64
2013-5-5,63.9,50.8,41.4,49.8,45.6,39.5,95,84,43,29.91,29.81,6,2,12,0.54
2013-5-6,60.3,52.6,49.5,56.2,50.8,47.8,97,94,80,29.95,29.80,8,1,14,1.50
2013-5-7,73.2,56.4,43.7,58.1,49.1,42.9,98,80,38,30.03,29.92,7,1,10,0.01
2013-5-8,82.6,66.1,50.0,62.1,54.1,48.6,97,70,34,30.09,30.00,8,1,11,0.01
2013-5-9,86.0,70.9,53.4,63.7,54.7,47.6,95,63,29,30.14,30.01,5,0,9,0.00
2013-5-10,76.1,66.5,61.2,65.3,60.0,56.8,93,80,57,30.07,29.93,4,0,11,0.43
2013-5-11,79.2,67.9,53.6,66.9,58.0,47.1,92,73,40,30.05,29.94,9,1,16,0.00
2013-5-12,71.1,60.4,47.8,52.9,25.6,-20.2,91,36,2,30.19,30.04,8,2,14,0.00
2013-5-13,75.4,59.4,39.7,45.5,31.3,3.5,88,44,7,30.29,30.16,8,1,14,0.00
2013-5-14,87.3,69.9,48.6,54.1,46.7,38.0,90,51,18,30.23,30.07,6,1,14,0.00
2013-5-15,88.7,73.7,56.7,58.0,47.7,28.9,86,48,12,30.18,30.02,8,1,16,0.00
2013-5-16,88.5,73.6,60.8,62.0,53.5,30.7,85,54,14,30.09,29.98,4,0,8,0.00
2013-5-17,76.6,69.0,64.2,68.6,63.9,55.5,95,84,72,30.09,29.99,3,0,6,0.50
2013-5-18,86.4,73.5,66.0,74.5,68.2,64.5,99,86,52,30.06,29.98,4,0,8,0.02
2013-5-19,76.8,69.3,64.2,62.8,61.3,59.8,86,76,62,30.05,29.99,2,0,4,0.00
2013-5-20,88.9,75.1,62.8,69.8,64.4,59.3,90,72,39,30.09,29.97,4,0,7,0.00
2013-5-21,91.9,79.7,64.6,72.1,64.3,56.2,93,63,32,30.03,29.86,4,0,8,0.00
2013-5-22,86.0,74.6,64.0,67.1,62.9,56.2,92,69,39,29.96,29.86,12,1,17,0.00
2013-5-23,86.7,73.6,60.6,71.2,57.4,44.5,96,62,24,30.09,29.94,11,2,21,0.00
2013-5-24,75.4,65.4,55.4,55.8,44.3,25.5,86,52,17,30.29,30.08,8,2,14,0.00
2013-5-25,82.8,64.4,50.0,51.4,40.5,8.6,86,52,6,30.34,30.20,4,0,8,0.00
2013-5-26,90.0,72.1,52.3,54.0,44.3,22.4,89,46,10,30.26,30.14,4,0,8,0.00
2013-5-27,90.1,75.5,58.5,61.9,53.5,43.4,88,53,22,30.20,30.07,4,0,10,0.00
2013-5-28,90.5,78.3,63.0,60.4,54.9,43.4,84,49,22,30.16,30.06,4,0,7,0.00
2013-5-29,92.8,81.3,68.5,61.0,56.2,49.8,63,44,25,30.17,30.05,4,0,9,0.00
2013-5-30,89.4,80.1,70.3,67.2,61.9,58.4,71,55,38,30.17,30.05,3,0,8,0.00
2013-5-31,89.4,79.7,72.0,66.8,62.9,58.9,74,58,39,30.13,30.01,2,0,6,0.00
2013-6-1,89.1,77.0,68.9,72.3,65.8,61.7,92,70,46,30.06,29.92,10,1,17,0.18
2013-6-2,85.6,74.5,69.4,72.6,68.3,63.2,96,83,50,29.99,29.91,6,1,15,0.04
2013-6-3,80.4,71.3,66.9,57.5,55.5,49.9,71,59,35,30.02,29.93,2,0,5,0.00
2013-6-4,91.2,76.4,61.2,60.6,53.7,39.6,87,52,19,30.05,29.95,4,1,8,0.00
2013-6-5,82.9,72.6,64.9,70.0,65.0,58.7,93,78,51,30.01,29.89,7,1,11,0.26
2013-6-6,89.1,77.4,66.2,72.4,65.8,59.7,98,71,39,29.91,29.74,8,1,11,0.02
2013-6-7,81.7,72.6,65.1,64.7,62.9,60.5,90,73,50,29.91,29.81,6,1,8,0.00
2013-6-8,89.2,72.4,61.7,72.3,60.8,44.2,97,74,25,30.03,29.89,6,0,8,0.00
2013-6-12,94.8,85.3,72.5,69.0,64.9,55.6,84,53,28,30.00,29.96,3,0,6,0.45
2013-6-13,95.0,83.3,71.8,72.7,68.0,61.4,85,62,41,30.00,29.82,11,2,17,0.00
2013-6-14,86.5,75.9,63.9,62.8,51.9,29.7,86,50,14,30.05,29.93,7,2,12,0.00
2013-6-15,93.6,78.7,61.3,62.3,55.3,40.6,87,51,19,30.12,30.03,4,0,7,0.00
2013-6-16,95.9,80.4,67.1,68.3,62.2,52.0,81,57,25,30.11,29.99,6,0,16,0.00
2013-6-17,94.1,76.8,70.5,73.8,67.7,59.8,91,76,35,30.04,29.92,8,0,17,0.44
2013-6-18,87.1,75.7,68.4,77.3,66.4,59.5,99,75,44,29.98,29.88,9,1,14,0.81
2013-6-19,91.8,78.0,64.6,68.8,61.2,46.1,92,62,21,30.08,29.96,4,1,13,0.00
2013-6-20,92.1,79.4,66.7,69.3,62.3,52.2,90,61,27,30.21,30.07,8,0,14,0.44
2013-6-21,90.3,78.1,64.8,71.1,61.5,50.4,94,62,28,30.25,30.13,4,0,10,0.00
2013-6-22,90.7,79.0,65.5,69.7,60.1,47.7,90,58,24,30.23,30.08,4,0,8,0.00
2013-6-23,93.2,80.3,64.2,67.4,61.8,50.9,90,58,26,30.19,30.08,3,0,7,0.00
2013-6-24,94.5,80.2,68.5,72.9,66.9,58.9,91,67,34,30.22,30.08,2,0,5,0.00
2013-6-25,95.2,82.1,73.2,72.8,68.3,58.8,88,66,30,30.16,30.02,6,1,14,0.00
2013-6-26,95.4,84.2,70.7,74.4,67.0,58.3,91,60,32,30.08,29.91,8,1,13,0.00
2013-6-27,96.6,82.6,69.4,77.2,68.1,58.9,93,66,30,29.98,29.84,11,2,25,0.32
2013-6-28,90.9,80.7,70.9,76.0,67.1,57.5,93,67,34,29.89,29.72,11,1,19,0.00
2013-6-29,93.0,81.6,68.2,71.7,56.6,38.0,89,50,15,29.75,29.68,8,1,14,0.00
2013-6-30,93.0,78.1,62.1,64.6,55.0,30.9,89,53,13,29.83,29.72,7,1,13,0.04
2013-7-1,88.9,75.8,62.8,68.7,60.4,52.4,92,63,31,29.93,29.79,7,1,11,0.02
2013-7-2,90.0,75.8,62.2,68.0,58.2,46.9,92,60,23,30.06,29.91,7,1,12,0.00
2013-7-3,87.4,74.3,66.6,69.3,64.6,55.6,89,74,37,30.13,30.04,4,0,8,0.16
2013-7-4,74.7,71.2,68.2,73.4,68.5,66.0,99,91,84,30.12,30.04,7,0,10,5.30
2013-7-5,79.0,72.9,69.6,76.5,71.4,68.7,99,95,78,30.15,30.06,3,0,6,0.50
2013-7-6,75.7,72.3,70.3,74.7,71.4,69.1,99,97,91,30.15,30.07,2,0,4,0.66
2013-7-7,75.9,71.7,70.7,75.3,71.4,70.1,99,99,98,30.16,30.10,0,0,2,0.09
2013-7-8,90.5,81.1,75.7,72.4,70.8,68.2,89,73,50,30.17,30.10,2,0,4,0.00
2013-7-9,96.3,83.3,75.0,76.7,71.2,61.4,94,70,32,30.20,30.05,8,0,16,0.01
2013-7-10,96.6,84.0,70.3,76.2,69.5,62.5,93,66,34,30.10,29.93,11,1,21,1.79
2013-7-11,90.3,78.0,70.3,77.4,70.5,65.7,98,80,49,30.15,29.88,8,0,17,59.13
2013-7-12,88.3,77.7,68.2,70.2,61.7,50.3,89,62,30,30.01,29.93,8,2,13,0.00
2013-7-13,89.8,77.1,62.6,66.4,60.6,52.3,84,59,31,30.07,29.97,4,1,10,0.00
2013-7-14,90.0,80.4,73.6,70.0,65.4,58.1,80,62,35,30.17,30.05,7,1,14,0.03
2013-7-15,89.4,81.2,74.7,70.0,64.8,55.1,82,60,33,30.28,30.16,6,1,13,0.04
2013-7-16,91.0,80.5,71.8,70.4,65.9,52.6,85,64,28,30.33,30.23,4,0,10,0.00
2013-7-17,97.7,84.4,71.1,74.2,66.5,51.0,91,60,23,30.32,30.16,5,1,9,0.00
2013-7-18,93.2,82.5,73.9,71.0,65.1,55.1,81,59,29,30.21,30.06,5,0,11,0.00
2013-7-19,96.3,83.7,70.2,74.1,65.5,49.6,90,59,21,30.14,29.96,4,0,8,0.00
2013-7-20,95.4,83.0,70.3,72.9,66.2,55.2,88,61,28,30.05,29.91,5,0,8,0.00
2013-7-21,94.8,79.8,72.0,73.0,68.1,58.1,88,70,32,30.04,29.94,8,1,13,0.07
2013-7-22,86.2,76.1,69.6,74.3,68.3,63.0,90,78,51,30.00,29.91,8,1,12,0.04
2013-7-23,84.2,76.1,70.3,77.1,70.0,66.3,93,82,62,29.99,29.87,3,0,9,0.28
2013-7-24,90.5,78.3,70.5,74.6,68.3,58.8,97,74,38,29.95,29.86,4,0,6,0.00
2013-7-25,89.8,77.9,66.7,66.8,56.6,44.5,82,53,24,30.06,29.92,8,1,12,0.00
2013-7-26,93.0,78.2,63.1,66.4,57.4,39.2,89,55,19,30.09,29.99,5,1,11,0.00
2013-7-27,91.0,79.1,70.3,68.8,61.7,48.1,82,59,25,30.00,29.90,5,1,10,0.00
2013-7-28,87.8,76.6,68.2,64.9,58.7,47.0,84,58,25,30.11,29.95,5,1,9,0.00
2013-7-29,85.8,73.2,64.0,59.0,50.6,26.4,78,51,12,30.20,30.09,4,1,10,0.00
2013-7-30,95.5,78.1,62.1,68.8,58.4,43.1,88,58,18,30.22,30.08,6,1,11,0.40
2013-7-31,88.3,76.4,70.0,76.5,70.3,64.8,94,82,57,30.15,29.95,8,0,17,1.03
2013-8-1,92.7,79.7,70.3,74.0,64.3,50.4,94,64,25,30.04,29.96,5,1,11,0.00
2013-8-2,91.8,78.5,65.8,67.3,59.0,44.6,89,58,21,30.06,30.00,3,0,7,0.00
2013-8-3,82.0,75.8,67.6,71.8,67.4,63.6,89,76,60,30.11,30.01,3,0,7,0.04
2013-8-6,78.8,77.2,75.4,73.9,73.2,72.4,91,88,84,29.99,29.96,0,0,0,0.00
2013-8-7,94.1,80.0,72.5,79.9,71.8,61.2,99,79,45,30.03,29.95,8,0,16,0.12
2013-8-8,73.4,73.0,72.5,70.8,69.7,68.1,92,89,86,30.03,29.97,2,0,4,0.06
2013-8-9,95.4,81.1,71.2,80.2,71.6,64.0,99,76,38,30.09,30.00,4,0,8,0.01
2013-8-10,90.5,77.7,72.1,78.4,71.4,67.6,95,82,50,30.15,30.07,5,0,8,0.11
2013-8-11,94.6,83.3,71.6,74.1,69.6,60.3,93,67,34,30.17,30.06,8,1,13,0.27
2013-8-12,93.7,80.4,71.8,78.9,70.6,62.3,99,75,38,30.13,29.98,6,1,13,0.16
2013-8-13,89.6,80.5,72.9,74.8,68.1,59.2,94,69,37,30.02,29.92,7,1,11,0.02
2013-8-14,85.1,74.3,64.9,66.8,57.4,40.2,84,59,25,30.06,29.96,6,2,11,0.00
2013-8-15,82.2,70.6,59.7,62.4,57.8,53.5,84,65,45,30.07,30.01,5,1,9,0.00
2013-8-16,77.0,70.4,45.1,60.0,57.8,35.2,81,65,49,30.11,30.04,4,0,9,62.97
2013-8-17,72.5,69.2,67.1,63.5,60.5,58.4,85,74,67,30.14,30.07,4,0,8,0.00
2013-8-18,80.8,72.4,67.3,68.3,64.2,59.6,87,76,50,30.19,30.09,4,0,10,0.03
2013-8-19,84.9,75.5,65.7,70.9,65.4,61.7,91,72,48,30.14,30.04,4,1,7,0.11
2013-8-20,90.0,78.4,68.9,76.6,68.8,61.5,96,75,39,30.16,30.07,3,0,7,0.07
2013-8-22,73.9,71.0,41.3,69.6,67.2,31.5,90,86,38,30.58,30.06,1,0,2,63.90
2013-8-23,91.4,79.8,68.9,74.4,65.7,50.3,97,67,27,30.12,29.99,4,0,7,0.00
2013-8-24,91.9,78.5,69.8,69.1,64.9,53.7,89,68,29,30.18,30.08,4,1,8,0.00
2013-8-31,96.1,91.6,84.9,72.3,66.8,57.6,66,45,32,30.09,29.96,2,0,5,0.00
2013-9-2,85.5,79.9,72.1,71.6,67.4,61.8,88,67,46,30.01,29.88,6,1,11,0.00
2013-9-3,91.2,79.8,70.3,72.0,59.0,32.9,88,57,15,30.04,29.92,7,1,11,0.00
2013-9-4,89.6,76.5,65.7,64.4,53.9,32.9,85,53,14,30.15,30.02,6,1,9,0.00
2013-9-5,89.6,75.8,62.6,62.6,53.2,31.9,84,53,15,30.18,30.10,4,1,7,0.00
2013-9-6,93.0,77.5,64.2,63.5,53.2,19.7,84,52,7,30.17,30.06,4,0,7,0.00
2013-9-7,94.3,78.8,64.2,67.1,59.0,40.6,87,58,17,30.13,30.01,4,0,8,0.00
2013-9-8,95.7,79.7,65.5,68.8,59.8,39.4,87,58,15,30.05,29.96,5,1,10,0.00
2013-9-9,94.5,79.3,69.8,75.1,65.1,50.6,86,66,25,30.11,30.01,3,0,7,0.27
2013-9-10,94.5,81.3,71.1,71.1,62.3,44.0,86,58,20,30.20,30.10,4,0,8,0.00
2013-9-11,94.1,80.4,67.8,70.9,57.8,37.8,87,54,15,30.23,30.10,4,0,6,0.00
2013-9-12,95.4,83.0,68.4,69.4,57.1,37.6,86,51,14,30.11,29.92,8,1,16,0.18
2013-9-13,85.1,73.2,60.1,68.7,49.5,17.6,90,53,9,30.01,29.91,8,1,11,0.01
2013-9-14,80.4,66.2,51.4,53.8,42.1,20.4,83,50,11,30.08,30.00,5,1,10,0.00
2013-9-15,87.8,70.6,55.0,60.0,50.9,33.1,86,57,15,30.14,30.07,4,0,7,0.00
2013-9-16,89.6,71.1,57.2,63.5,47.5,3.6,88,54,4,30.18,30.09,4,1,8,0.00
2013-9-17,90.5,76.8,64.2,61.2,53.5,34.2,81,50,15,30.19,30.08,4,0,11,0.00
2013-9-18,86.2,74.9,66.6,60.5,54.5,45.7,70,51,26,30.21,30.09,4,0,8,0.00
2013-9-19,90.7,77.0,65.5,61.3,53.9,37.4,79,51,16,30.19,30.05,4,0,6,0.00
2013-9-20,93.4,77.5,63.0,64.9,53.3,30.7,84,51,11,30.08,29.86,4,0,7,0.07
2013-9-21,74.3,68.0,55.2,67.7,59.3,45.1,88,75,37,29.87,29.76,7,1,12,2.33
2013-9-22,78.8,65.2,52.9,52.4,40.7,14.7,86,51,10,29.93,29.85,8,2,14,0.00
2013-9-23,86.5,68.8,53.2,57.6,46.0,20.7,85,53,9,30.00,29.92,6,0,8,0.00
2013-9-24,82.4,68.7,59.4,64.2,59.5,54.0,86,73,45,30.01,29.87,5,0,11,0.01
2013-9-25,81.1,71.1,66.2,65.1,61.3,52.1,84,72,38,29.90,29.81,4,0,6,0.00
2013-9-26,84.6,73.1,65.7,64.2,54.9,34.2,85,58,17,30.04,29.88,4,1,8,0.00
2013-9-27,84.7,69.7,56.8,62.0,50.7,25.7,86,58,12,30.15,30.03,4,0,8,0.00
2013-9-28,83.8,68.3,56.7,61.2,45.8,18.3,86,54,10,30.23,30.09,3,0,8,0.00
2013-9-29,81.0,66.5,54.7,56.6,48.8,33.6,85,58,21,30.14,30.02,4,0,8,0.00
2013-9-30,77.0,67.7,61.0,58.3,53.7,45.8,81,62,36,30.10,29.99,2,0,4,0.03
2013-10-1,84.7,70.3,57.7,65.7,56.2,47.7,88,65,28,30.15,30.04,3,0,5,0.00
2013-10-2,88.3,73.3,60.4,67.9,57.3,44.5,89,63,22,30.17,30.06,3,0,6,0.01
2013-10-3,88.9,75.6,63.3,69.0,55.3,33.1,89,58,16,30.14,30.04,4,0,7,64.93
2013-10-4,91.0,74.8,62.8,65.4,58.4,46.1,87,62,23,30.15,30.06,4,0,9,0.00
2013-10-5,93.2,77.6,65.7,68.7,56.8,43.1,86,55,19,30.11,29.97,3,0,7,0.00
2013-10-6,85.6,71.5,56.3,70.7,58.5,45.4,82,65,37,30.13,29.82,9,1,17,0.00
2013-10-7,72.0,60.5,50.2,50.4,34.8,7.5,84,48,9,30.09,29.93,6,1,11,0.00
2013-10-8,78.6,63.2,49.6,49.1,36.0,12.3,73,44,8,30.13,30.04,5,2,11,0.00
2013-10-9,81.7,67.6,59.9,53.4,38.2,2.7,74,43,6,30.19,30.10,4,0,9,0.00
2013-10-10,85.5,67.3,55.2,57.9,48.0,20.1,84,58,12,30.17,30.04,4,0,8,0.00
2013-10-11,86.4,66.9,54.3,60.5,44.9,12.6,86,56,7,30.12,30.01,4,0,7,0.00
2013-10-12,88.3,67.6,51.8,57.7,45.7,19.5,86,56,8,30.14,30.04,6,0,11,0.00
2013-10-13,84.0,69.1,57.2,59.3,44.5,20.6,85,51,10,30.24,30.13,5,1,9,0.00
2013-10-14,85.6,69.5,58.1,58.6,49.5,24.5,82,56,13,30.23,30.10,4,0,7,0.00
2013-10-15,81.9,68.5,61.2,58.7,50.5,33.3,79,57,20,30.14,30.03,4,0,11,0.00
2013-10-16,71.6,66.3,63.1,64.0,58.3,53.8,88,76,61,30.13,29.93,2,0,4,0.00
2013-10-17,66.4,61.2,48.7,62.7,55.7,44.7,90,82,66,30.03,29.90,5,1,8,0.00
2013-10-18,68.4,54.9,47.7,55.9,42.4,25.1,92,70,20,30.11,29.98,4,0,6,0.00
2013-10-19,73.0,57.0,42.8,53.5,42.3,28.9,87,63,21,30.13,29.94,8,1,13,0.00
2013-10-20,64.9,46.2,37.9,45.7,31.2,2.5,87,64,10,30.13,30.03,4,0,6,0.00
2013-10-21,73.9,50.9,36.0,48.9,33.2,6.3,86,60,8,30.12,30.01,2,0,4,0.00
2013-10-22,69.4,57.1,48.9,48.7,42.7,32.8,84,62,26,30.04,29.90,4,1,8,0.00
2013-10-25,47.3,36.9,31.3,41.4,18.3,-9.3,80,50,11,30.38,29.94,0,0,2,0.00
2013-10-26,58.8,40.2,26.6,37.1,18.2,-7.7,80,50,6,30.35,30.14,2,0,2,0.00
2013-10-27,72.0,60.5,50.7,44.2,29.4,14.0,59,34,12,30.15,30.08,4,0,6,0.00
2013-10-28,74.1,60.6,54.1,54.2,47.1,35.5,81,64,28,30.25,30.12,4,0,8,0.00
2013-10-31,73.9,68.8,58.8,62.8,58.6,49.1,81,70,44,30.24,29.72,7,2,12,0.00
2013-11-1,74.5,59.6,46.4,60.0,42.4,7.6,86,61,9,29.89,29.75,7,1,11,0.00
2013-11-2,67.5,50.3,43.0,46.6,29.2,-2.2,84,54,6,30.16,29.87,4,1,11,0.00
2013-11-3,56.7,43.3,36.5,35.4,25.2,-3.6,79,54,9,30.32,30.16,5,1,9,0.00
2013-11-4,61.7,47.9,35.1,35.6,16.9,-1.6,76,41,8,30.38,30.27,3,1,8,0.00
2013-11-5,60.8,54.1,49.8,30.1,9.2,-8.0,44,18,6,30.40,30.26,3,1,8,0.00
2013-11-6,80.6,66.1,51.3,52.6,38.1,10.9,62,40,11,30.26,30.06,4,1,11,0.00
2013-11-7,66.0,47.4,33.8,55.5,25.7,-8.9,82,50,7,30.34,30.07,7,2,14,0.00
2013-11-8,50.7,37.3,29.8,25.6,17.8,-7.6,74,51,8,30.41,30.25,4,0,10,0.00
2013-11-9,70.0,46.5,34.9,52.1,23.2,-4.2,75,46,7,30.34,29.94,2,0,4,0.00
2013-11-10,66.2,50.7,42.3,41.5,23.1,-1.7,79,43,9,30.34,30.27,4,1,8,0.00
2013-11-11,55.2,43.1,34.2,24.6,13.2,-10.2,58,32,7,30.32,30.18,4,0,7,0.00
2013-11-12,51.3,45.2,39.7,31.9,20.1,-13.0,55,39,8,30.45,30.19,11,3,21,0.00
2013-11-13,34.5,28.4,25.0,5.8,-5.3,-18.0,43,24,9,30.67,30.46,7,1,12,0.00
2013-11-14,45.0,26.9,20.3,18.2,7.0,-13.9,64,47,9,30.48,30.28,2,0,3,0.00
2013-11-24,59.2,28.3,25.3,23.4,-17.9,-21.1,25,11,9,30.60,30.31,8,4,17,0.00
2013-11-25,38.5,34.4,26.8,32.5,12.2,-20.0,79,49,9,30.43,30.14,2,0,5,0.00
2013-11-26,40.8,38.9,37.9,36.1,33.6,31.2,83,81,78,30.14,29.90,6,1,13,0.00
2013-12-5,52.0,43.7,42.4,46.0,36.8,35.8,80,77,75,30.04,29.81,5,3,11,0.00
2013-12-6,42.6,39.1,35.1,37.8,33.4,27.6,83,80,74,30.29,29.98,8,3,16,0.00
2013-12-7,35.4,33.4,31.8,27.9,24.7,23.2,79,70,63,30.45,30.28,8,4,17,0.00
2013-12-8,68.5,42.0,35.4,47.0,37.4,25.6,90,84,67,30.28,30.00,6,0,9,0.00
2013-12-9,50.0,41.5,34.9,47.2,37.6,30.3,90,86,78,30.17,30.07,7,2,10,0.00
2013-12-10,34.9,33.5,32.7,30.5,28.9,27.8,84,83,82,30.19,30.08,4,2,9,0.00
2013-12-11,38.1,35.4,33.4,8.3,2.8,-9.1,33,25,12,30.49,30.40,5,1,11,0.00
2013-12-12,33.3,25.9,21.6,10.9,-0.6,-18.6,48,32,10,30.59,30.41,8,2,15,0.00
2013-12-13,43.3,31.3,19.9,15.6,0.7,-12.8,62,34,8,30.42,30.11,2,0,3,0.00
2013-12-14,53.4,46.6,37.8,49.0,35.5,-10.7,86,70,9,30.11,29.82,11,2,15,0.00
2013-12-15,37.8,34.7,29.3,28.3,20.6,13.7,74,56,42,30.28,30.01,8,2,15,0.00
2013-12-16,45.0,33.8,25.9,19.9,13.9,2.7,77,49,17,30.26,30.18,1,0,2,0.00
2013-12-17,54.0,40.8,26.1,22.3,10.4,-2.4,74,33,10,30.38,30.15,6,1,10,0.00
2013-12-18,42.8,31.5,24.8,22.5,7.1,-15.3,77,41,7,30.39,30.24,2,0,3,0.00
2013-12-19,48.7,36.2,30.4,11.6,5.1,-5.3,43,28,10,30.29,30.23,2,0,3,0.00
2013-12-20,67.6,61.0,51.8,50.5,33.1,-3.8,63,37,9,30.13,29.98,3,1,7,0.00
2013-12-21,72.5,67.7,62.4,63.4,56.8,19.9,78,68,54,30.26,29.74,5,2,15,0.14
2013-12-22,69.6,56.9,53.2,61.7,50.6,46.9,85,80,62,30.09,29.78,10,1,18,0.83
2013-12-23,54.1,38.3,26.1,49.4,23.7,7.3,84,58,28,30.44,30.07,8,2,14,0.83
2013-12-24,34.3,27.3,22.3,19.9,1.4,-19.7,77,37,10,30.54,30.26,7,1,14,0.00
2013-12-25,38.7,26.5,18.1,15.0,1.5,-14.0,60,36,10,30.45,30.31,2,0,4,0.00
2013-12-26,48.7,31.9,23.5,23.7,9.7,-10.3,72,45,9,30.42,30.26,4,1,8,0.00
2013-12-27,49.1,32.1,24.8,16.3,6.2,-13.0,58,36,9,30.48,30.37,2,0,4,0.00
2013-12-28,48.0,39.3,29.3,37.2,23.1,-5.7,81,56,10,30.38,29.93,4,0,6,0.59
2013-12-29,53.8,44.4,39.2,42.5,34.1,22.1,83,70,31,30.09,29.91,5,1,9,0.19
2014-1-2,34.0,24.7,21.4,22.4,-9.0,-19.6,62,21,12,30.34,30.17,10,4,23,0.36